Location: El Águila
(10.4167°N, 66.7167°W)
Time: 05:21:43
(UTC+00:00)

SL-14 R/B - Pass Details

Date: 02 October 2022
Orbit: 516 x 550 km, 82.4° (Epoch: 26 November)

Event Time Altitude Azimuth Distance (km) Brightness Sun altitude
Rises 23:05:01 0° 8° (N) 2,697 6.8 -12.7°
Reaches altitude 10° 23:07:16 10° 16° (NNE) 1,809 5.8 -13.3°
Maximum altitude 23:11:00 38° 85° (E) 840 3.7 -14.2°
Drops below altitude 10° 23:14:44 10° 154° (SSE) 1,819 5.7 -15.1°
Sets 23:17:00 0° 162° (SSE) 2,713 6.7 -15.7°
